STARLINK-33681, 63438

Orbit data source: Space-Track

STARLINK-33681, 63438 is a payload satellite owned by SpaceX/Seattle (US) in LEO that was launched on Fri, 04 Apr 2025 UTC via an FALCON 9 launch vehicle from the Air Force Western Test Range (AFWTR). Payload-class satellites include a variety of spacecraft equipped with specific instruments for various scientific and technological missions. These include communications satellites like Starlink; space stations such as the ISS; scientific satellites like the Hubble; Earth observation satellites from companies like Planet Labs, Umbra, and HawkEye 360; GPS; miniature CubeSats for education and research; and military/defense satellites.

Loading next visibility...
Identifier
63438, 2025-069F
Orbit
LEO
Country
Flag of USUS
Related business
Manufacturer
SpaceX/Seattle
Mission
Operational Commercial Communications
Bus & Motor
STARLINK V2MO, Unknown motor
Mass
575 kg wet, ~530 kg dry
Launch date (UTC)
2025-04-04 (1 year ago)
Launch vehicle
FALCON 9
Launch site
Air Force Western Test Range (AFWTR)
Object type
Payload
Rocket body
Debris
Shape & HBR
Box + 2 Pan, 17.7 m
Radar Cross Section
36.964 m², Large (>1 m²)

Expand to show TLE details & history
Last TLE update: 12 hours ago

TLE from 12 hours ago
0 STARLINK-33681
1 63438U 25069F   26145.26004602  .00035979  00000-0  83195-3 0  9996
2 63438  53.1594 144.2838 0000521 329.0022  31.0953 15.42174286 65168
Epoch: 2026-05-25T06:14Z
TLE epoch observation values (Epoch: 2026-05-25T06:14:27.976Z)
Latitude
-0.00002°
Longitude
167.81683°
Altitude
440.294 km
Speed
7.649 km/s
True Right ascension
09h 37m 08s
True Declination
0° 00' 00"
Sunlit
Object was in daylight at epoch
Visualization orbit readout
Latitude
Unknown
Longitude
Unknown
Altitude
Unknown
Speed
Unknown
Apparent Right ascension
Unknown
Apparent Declination
Unknown
Sunlit
N/A
Visualization observer readout
Local Sidereal Time
03:51:00
Azimuth
Unknown
Elevation
Unknown
Doppler factor
Unknown
Orbital elements
Apogee altitude
440.307 km
Perigee altitude
439.596 km
Semi-major axis
6,818.088 km
Eccentricity
0.00005
Inclination
53.1594°
RAAN
144.2838°
Arg. of periapsis
329.0022°
True anomaly
31.09838°
Mean anomaly
31.0953°
Eccentric anomaly
31.09684°
Mean motion
3.85522 °/min
Orbital period
93.38 mins
BSTAR
0.00083195
Loading maneuver chart data...
Computing Atmospheric mass density...
Loading historical data...
Loading historical data...
Loading historical data...
Loading historical data...
Loading historical data...
Loading historical data...
Loading historical data...

Documentation

Showing up to 5 results
|